2022-098B (53445 NORAD) Tracking and Keplerian Element Data

This shows tracking and keplerian element data for the satellite.

Feedback or suggestion? Click here.




ElementValue
Catalog53445
Name2022-098B
Epoch Orbit722
Epoch Day270.19000733
Epoch Year2022
RAAN5.6974
Inclination97.5337
Eccentricity0.001162
Argument of Perigee100.3556
Mean Anonmoly346.8816
Mean Motion15.0960472
Decay Rate4.075E-05
L11 53445U 22098B 22270.19000733 .00004075 00000+0 25712-3 0 9993
L22 53445 97.5337 5.6974 0011620 100.3556 346.8816 15.09604720 7229

Live tracking and technical data element details for 2022-098B (NORAD 53445). 2022-098B can be tracked NOW for your location showing map with azimuth and elevation plus other details from your city location.

Track the satellite on the map from your city or location and see movement details for azimuth, elevation, latitude, longitude, range, height, and movement on the map or in text.







IsCatalogInMostPopularTable: catalog: 53445, numindb: 3
Update: records affected: 1



GetName: 53445 2022-098B

Hit Count: updated at: Thu, 29 Sep 2022 11:59:57 GMT